Meteorología y climatología de Navarra
Datos de la estación - Meteo Navarra

Estación de Iñarbegi GN

Altitud 585 m.


Datos desde el 02/08/2020 hasta el 03/08/2020 en horario solar
Los datos son PROVISIONALES

Anterior Página 1 de 1 Siguiente Descargar: Formato para Excel 2000 o superior   Formato csv   Formato para OpenOffice Calc
Fecha Temperatura Humedad relativa Radiación global Insolación Precipitación Vel. viento 10 m Vel. viento 10 m Dir. viento 10 m
ºC % W/m² s l/m² m/s km/h º
02/08/2020 0:00 16.0 100 - - - - 0.0 - - - - - -
02/08/2020 0:10 16.0 100 - - - - 0.0 - - - - - -
02/08/2020 0:20 15.9 100 - - - - 0.0 - - - - - -
02/08/2020 0:30 15.7 100 - - - - 0.0 - - - - - -
02/08/2020 0:40 15.6 100 - - - - 0.0 - - - - - -
02/08/2020 0:50 15.6 100 - - - - 0.0 - - - - - -
02/08/2020 1:00 15.6 100 - - - - 0.0 - - - - - -
02/08/2020 1:10 15.6 100 - - - - 0.0 - - - - - -
02/08/2020 1:20 15.6 100 - - - - 0.0 - - - - - -
02/08/2020 1:30 15.3 100 - - - - 0.0 - - - - - -
02/08/2020 1:40 15.1 100 - - - - 0.0 - - - - - -
02/08/2020 1:50 15.1 100 - - - - 0.0 - - - - - -
02/08/2020 2:00 14.9 100 - - - - 0.0 - - - - - -
02/08/2020 2:10 15.0 100 - - - - 0.0 - - - - - -
02/08/2020 2:20 15.0 100 - - - - 0.0 - - - - - -
02/08/2020 2:30 15.0 100 - - - - 0.0 - - - - - -
02/08/2020 2:40 15.0 100 - - - - 0.0 - - - - - -
02/08/2020 2:50 15.1 100 - - - - 0.0 - - - - - -
02/08/2020 3:00 15.2 100 - - - - 0.1 - - - - - -
02/08/2020 3:10 15.3 100 - - - - 0.0 - - - - - -
02/08/2020 3:20 15.2 100 - - - - 0.2 - - - - - -
02/08/2020 3:30 15.2 100 - - - - 0.1 - - - - - -
02/08/2020 3:40 15.2 100 - - - - 0.1 - - - - - -
02/08/2020 3:50 15.2 100 - - - - 0.0 - - - - - -
02/08/2020 4:00 15.2 100 - - - - 0.0 - - - - - -
02/08/2020 4:10 15.1 100 - - - - 0.0 - - - - - -
02/08/2020 4:20 15.1 100 - - - - 0.0 - - - - - -
02/08/2020 4:30 15.0 100 - - - - 0.0 - - - - - -
02/08/2020 4:40 15.0 100 - - - - 0.0 - - - - - -
02/08/2020 4:50 15.1 100 - - - - 0.0 - - - - - -
02/08/2020 5:00 15.0 100 - - - - 0.0 - - - - - -
02/08/2020 5:10 15.1 100 - - - - 0.0 - - - - - -
02/08/2020 5:20 15.1 100 - - - - 0.0 - - - - - -
02/08/2020 5:30 15.1 100 - - - - 0.1 - - - - - -
02/08/2020 5:40 15.2 100 - - - - 0.0 - - - - - -
02/08/2020 5:50 15.1 100 - - - - 0.0 - - - - - -
02/08/2020 6:00 15.1 100 - - - - 0.0 - - - - - -
02/08/2020 6:10 15.3 100 - - - - 0.0 - - - - - -
02/08/2020 6:20 15.3 100 - - - - 0.3 - - - - - -
02/08/2020 6:30 15.1 100 - - - - 0.0 - - - - - -
02/08/2020 6:40 15.2 100 - - - - 0.0 - - - - - -
02/08/2020 6:50 15.3 100 - - - - 0.0 - - - - - -
02/08/2020 7:00 15.4 100 - - - - 0.0 - - - - - -
02/08/2020 7:10 15.3 100 - - - - 0.0 - - - - - -
02/08/2020 7:20 15.3 100 - - - - 0.0 - - - - - -
02/08/2020 7:30 15.4 100 - - - - 0.0 - - - - - -
02/08/2020 7:40 15.4 100 - - - - 0.1 - - - - - -
02/08/2020 7:50 15.5 100 - - - - 0.0 - - - - - -
02/08/2020 8:00 15.7 100 - - - - 0.0 - - - - - -
02/08/2020 8:10 15.8 100 - - - - 0.0 - - - - - -
02/08/2020 8:20 15.8 100 - - - - 0.0 - - - - - -
02/08/2020 8:30 16.3 100 - - - - 0.0 - - - - - -
02/08/2020 8:40 16.4 100 - - - - 0.0 - - - - - -
02/08/2020 8:50 16.1 100 - - - - 0.0 - - - - - -
02/08/2020 9:00 16.1 100 - - - - 0.0 - - - - - -
02/08/2020 9:10 16.2 100 - - - - 0.0 - - - - - -
02/08/2020 9:20 16.4 100 - - - - 0.0 - - - - - -
02/08/2020 9:30 16.6 100 - - - - 0.0 - - - - - -
02/08/2020 9:40 16.5 100 - - - - 0.0 - - - - - -
02/08/2020 9:50 16.2 100 - - - - 0.0 - - - - - -
02/08/2020 10:00 15.9 100 - - - - 0.1 - - - - - -
02/08/2020 10:10 16.0 100 - - - - 0.0 - - - - - -
02/08/2020 10:20 16.4 100 - - - - 0.0 - - - - - -
02/08/2020 10:30 16.5 100 - - - - 0.0 - - - - - -
02/08/2020 10:40 16.6 100 - - - - 0.0 - - - - - -
02/08/2020 10:50 17.1 100 - - - - 0.0 - - - - - -
02/08/2020 11:00 18.1 99 - - - - 0.0 - - - - - -
02/08/2020 11:10 18.2 91 - - - - 0.0 - - - - - -
02/08/2020 11:20 17.6 89 - - - - 0.0 - - - - - -
02/08/2020 11:30 17.2 92 - - - - 0.0 - - - - - -
02/08/2020 11:40 17.2 93 - - - - 0.0 - - - - - -
02/08/2020 11:50 17.3 92 - - - - 0.0 - - - - - -
02/08/2020 12:00 18.2 89 - - - - 0.0 - - - - - -
02/08/2020 12:10 18.6 84 - - - - 0.0 - - - - - -
02/08/2020 12:20 18.2 85 - - - - 0.0 - - - - - -
02/08/2020 12:30 18.1 86 - - - - 0.0 - - - - - -
02/08/2020 12:40 18.5 85 - - - - 0.0 - - - - - -
02/08/2020 12:50 19.6 77 - - - - 0.0 - - - - - -
02/08/2020 13:00 19.8 76 - - - - 0.0 - - - - - -
02/08/2020 13:10 19.7 74 - - - - 0.0 - - - - - -
02/08/2020 13:20 18.9 79 - - - - 0.0 - - - - - -
02/08/2020 13:30 18.6 79 - - - - 0.0 - - - - - -
02/08/2020 13:40 18.1 82 - - - - 0.0 - - - - - -
02/08/2020 13:50 18.0 84 - - - - 0.0 - - - - - -
02/08/2020 14:00 17.8 86 - - - - 0.0 - - - - - -
02/08/2020 14:10 17.3 87 - - - - 0.0 - - - - - -
02/08/2020 14:20 16.6 90 - - - - 0.0 - - - - - -
02/08/2020 14:30 16.8 93 - - - - 0.0 - - - - - -
02/08/2020 14:40 17.8 91 - - - - 0.0 - - - - - -
02/08/2020 14:50 18.5 85 - - - - 0.0 - - - - - -
02/08/2020 15:00 18.7 81 - - - - 0.0 - - - - - -
02/08/2020 15:10 18.8 78 - - - - 0.0 - - - - - -
02/08/2020 15:20 19.0 77 - - - - 0.0 - - - - - -
02/08/2020 15:30 19.1 76 - - - - 0.0 - - - - - -
02/08/2020 15:40 18.6 77 - - - - 0.0 - - - - - -
02/08/2020 15:50 18.7 77 - - - - 0.0 - - - - - -
02/08/2020 16:00 18.9 76 - - - - 0.0 - - - - - -
02/08/2020 16:10 18.8 77 - - - - 0.0 - - - - - -
02/08/2020 16:20 18.3 79 - - - - 0.0 - - - - - -
02/08/2020 16:30 17.9 80 - - - - 0.0 - - - - - -
02/08/2020 16:40 17.8 81 - - - - 0.0 - - - - - -
02/08/2020 16:50 17.6 82 - - - - 0.0 - - - - - -
02/08/2020 17:00 17.7 83 - - - - 0.0 - - - - - -
02/08/2020 17:10 17.9 80 - - - - 0.0 - - - - - -
02/08/2020 17:20 17.5 81 - - - - 0.0 - - - - - -
02/08/2020 17:30 17.1 83 - - - - 0.0 - - - - - -
02/08/2020 17:40 17.0 84 - - - - 0.0 - - - - - -
02/08/2020 17:50 17.1 85 - - - - 0.0 - - - - - -
02/08/2020 18:00 16.6 86 - - - - 0.0 - - - - - -
02/08/2020 18:10 16.5 88 - - - - 0.0 - - - - - -
02/08/2020 18:20 16.4 88 - - - - 0.0 - - - - - -
02/08/2020 18:30 16.1 88 - - - - 0.0 - - - - - -
02/08/2020 18:40 15.8 90 - - - - 0.0 - - - - - -
02/08/2020 18:50 15.4 90 - - - - 0.0 - - - - - -
02/08/2020 19:00 15.1 92 - - - - 0.0 - - - - - -
02/08/2020 19:10 14.7 93 - - - - 0.0 - - - - - -
02/08/2020 19:20 14.5 94 - - - - 0.0 - - - - - -
02/08/2020 19:30 14.3 95 - - - - 0.0 - - - - - -
02/08/2020 19:40 14.1 97 - - - - 0.0 - - - - - -
02/08/2020 19:50 14.2 99 - - - - 0.0 - - - - - -
02/08/2020 20:00 14.3 100 - - - - 0.0 - - - - - -
02/08/2020 20:10 14.3 100 - - - - 0.0 - - - - - -
02/08/2020 20:20 14.2 100 - - - - 0.0 - - - - - -
02/08/2020 20:30 14.3 100 - - - - 0.0 - - - - - -
02/08/2020 20:40 14.3 100 - - - - 0.0 - - - - - -
02/08/2020 20:50 14.3 100 - - - - 0.0 - - - - - -
02/08/2020 21:00 14.2 100 - - - - 0.0 - - - - - -
02/08/2020 21:10 14.3 100 - - - - 0.0 - - - - - -
02/08/2020 21:20 14.3 100 - - - - 0.0 - - - - - -
02/08/2020 21:30 14.4 100 - - - - 0.0 - - - - - -
02/08/2020 21:40 14.4 100 - - - - 0.0 - - - - - -
02/08/2020 21:50 14.4 100 - - - - 0.0 - - - - - -
02/08/2020 22:00 14.2 100 - - - - 0.0 - - - - - -
02/08/2020 22:10 14.1 100 - - - - 0.0 - - - - - -
02/08/2020 22:20 14.1 100 - - - - 0.0 - - - - - -
02/08/2020 22:30 14.0 100 - - - - 0.0 - - - - - -
02/08/2020 22:40 14.0 100 - - - - 0.0 - - - - - -
02/08/2020 22:50 14.0 99 - - - - 0.0 - - - - - -
02/08/2020 23:00 14.3 91 - - - - 0.0 - - - - - -
02/08/2020 23:10 14.4 87 - - - - 0.0 - - - - - -
02/08/2020 23:20 14.5 86 - - - - 0.0 - - - - - -
02/08/2020 23:30 14.3 88 - - - - 0.0 - - - - - -
02/08/2020 23:40 14.1 90 - - - - 0.0 - - - - - -
02/08/2020 23:50 14.1 91 - - - - 0.0 - - - - - -
Anterior Página 1 de 1 Siguiente

NOTA: Tipo de datos según el color:
   - Valores diarios o 10 minutos correctos
   - Valores diarios calculados a partir de un número de datos 10 minutos menor que 144 y mayor que 120, o de un número de datos semihorarios menor que 48 y mayor que 40 (caso de las estaciones de INTIA y del Ministerio)
   - Valores diez minutos estimados


Contacto        Enlaces        Aviso legal